| time (UTC) | temp C | wind direction | speed KPH | gust KPH | rain 1hr cm | rain 24hr cm | rain mn cm | humidity % | barometer mb |
| 20260503224134 | 33 | 225 | 6.4 | 16.1 | 0.00 | 0.00 | 0.00 | 24 | |
| 20260503223134 | 33 | 293 | 8.0 | 14.5 | 0.00 | 0.00 | 0.00 | 25 | |
| 20260503222134 | 33 | 248 | 6.4 | 14.5 | 0.00 | 0.00 | 0.00 | 27 | |
| 20260503221133 | 32 | 293 | 9.7 | 16.1 | 0.00 | 0.00 | 0.00 | 30 | |
| 20260503220154 | 31 | 270 | 11.3 | 19.3 | 0.00 | 0.00 | 0.00 | 30 | |
| 20260503215133 | 31 | 293 | 9.7 | 17.7 | 0.00 | 0.00 | 0.00 | 32 | |
| 20260503214134 | 31 | 293 | 11.3 | 16.1 | 0.00 | 0.00 | 0.00 | 32 | |
| 20260503213133 | 31 | 293 | 11.3 | 19.3 | 0.00 | 0.00 | 0.00 | 32 | |
| 20260503212133 | 30 | 270 | 9.7 | 24.1 | 0.00 | 0.00 | 0.00 | 32 | |
| 20260503211134 | 30 | 293 | 12.9 | 24.1 | 0.00 | 0.00 | 0.00 | 34 | |
| 20260503210234 | 30 | 293 | 11.3 | 20.9 | 0.00 | 0.00 | 0.00 | 34 | |
| 20260503205134 | 29 | 293 | 11.3 | 19.3 | 0.00 | 0.00 | 0.00 | 37 | |
| 20260503204134 | 29 | 293 | 11.3 | 20.9 | 0.00 | 0.00 | 0.00 | 39 | |
| 20260503203133 | 28 | 293 | 11.3 | 22.5 | 0.00 | 0.00 | 0.00 | 40 | |
| 20260503202137 | 28 | 293 | 12.9 | 20.9 | 0.00 | 0.00 | 0.00 | 40 | |
| 20260503201133 | 27 | 293 | 12.9 | 22.5 | 0.00 | 0.00 | 0.00 | 41 | |
| 20260503200137 | 27 | 293 | 12.9 | 19.3 | 0.00 | 0.00 | 0.00 | 42 | |
| 20260503195157 | 27 | 293 | 11.3 | 19.3 | 0.00 | 0.00 | 0.00 | 44 | |
| 20260503194134 | 26 | 293 | 12.9 | 20.9 | 0.00 | 0.00 | 0.00 | 45 | |
| 20260503193154 | 26 | 293 | 12.9 | 22.5 | 0.00 | 0.00 | 0.00 | 46 | |
| 20260503192134 | 26 | 293 | 12.9 | 19.3 | 0.00 | 0.00 | 0.00 | 46 | |
| 20260503191134 | 25 | 293 | 11.3 | 19.3 | 0.00 | 0.00 | 0.00 | 46 | |
| 20260503190134 | 25 | 293 | 12.9 | 19.3 | 0.00 | 0.00 | 0.00 | 48 | |
| 20260503185154 | 25 | 293 | 11.3 | 19.3 | 0.00 | 0.00 | 0.00 | 49 | |
| 20260503184134 | 24 | 293 | 12.9 | 20.9 | 0.00 | 0.00 | 0.00 | 50 | |
| 20260503183134 | 24 | 293 | 12.9 | 20.9 | 0.00 | 0.00 | 0.00 | 50 | |
| 20260503182134 | 23 | 293 | 11.3 | 20.9 | 0.00 | 0.00 | 0.00 | 51 | |
| 20260503181134 | 23 | 293 | 12.9 | 20.9 | 0.00 | 0.00 | 0.00 | 50 | |
| 20260503180133 | 23 | 293 | 12.9 | 22.5 | 0.00 | 0.00 | 0.00 | 50 | |
| 20260503175133 | 22 | 293 | 11.3 | 19.3 | 0.00 | 0.00 | 0.00 | 52 | |
| 20260503174134 | 22 | 293 | 11.3 | 17.7 | 0.00 | 0.00 | 0.00 | 53 | |
| 20260503173138 | 22 | 270 | 9.7 | 17.7 | 0.00 | 0.00 | 0.00 | 53 | |
| 20260503172134 | 21 | 293 | 11.3 | 17.7 | 0.00 | 0.00 | 0.00 | 55 | |
| 20260503171134 | 21 | 270 | 9.7 | 19.3 | 0.00 | 0.00 | 0.00 | 56 | |
| 20260503170133 | 20 | 293 | 9.7 | 16.1 | 0.00 | 0.00 | 0.00 | 60 | |
| 20260503160134 | 17 | 270 | 3.2 | 11.3 | 0.00 | 0.00 | 0.00 | 73 | |
| 20260503150134 | 15 | 270 | 6.4 | 16.1 | 0.00 | 0.00 | 0.00 | 79 | |
| 20260503140134 | 15 | 293 | 9.7 | 16.1 | 0.00 | 0.00 | 0.00 | 81 | |
| 20260503131134 | 15 | 315 | 4.8 | 11.3 | 0.00 | 0.00 | 0.00 | 82 | |
| 20260503130154 | 15 | 315 | 4.8 | 9.7 | 0.00 | 0.00 | 0.00 | 82 | |
| 20260503120134 | 15 | 315 | 1.6 | 8.0 | 0.00 | 0.00 | 0.00 | 81 | |
| 20260503110139 | 15 | 315 | 4.8 | 11.3 | 0.00 | 0.00 | 0.00 | 80 | |
| 20260503100134 | 16 | 293 | 6.4 | 12.9 | 0.00 | 0.00 | 0.00 | 80 | |
| 20260503090134 | 16 | 293 | 8.0 | 14.5 | 0.00 | 0.00 | 0.00 | 80 | |
| 20260503081134 | 17 | 293 | 11.3 | 17.7 | 0.00 | 0.00 | 0.00 | 75 | |
| 20260503080134 | 17 | 293 | 12.9 | 17.7 | 0.00 | 0.00 | 0.00 | 74 | |
| 20260503072134 | 16 | 293 | 8.0 | 12.9 | 0.00 | 0.00 | 0.00 | 79 | |
| 20260503071134 | 16 | 293 | 3.2 | 9.7 | 0.00 | 0.00 | 0.00 | 83 | |
| 20260503070134 | 16 | 293 | 4.8 | 8.0 | 0.00 | 0.00 | 0.00 | 83 | |
| 20260503060134 | 17 | 0.0 | 0.0 | 0.00 | 0.00 | 0.00 | 80 | ||
| 20260503054134 | 17 | 0.0 | 0.0 | 0.00 | 0.00 | 0.00 | 78 | ||
| 20260503053134 | 17 | 0.0 | 0.0 | 0.00 | 0.00 | 0.00 | 77 | ||
| 20260503052134 | 18 | 0.0 | 1.6 | 0.00 | 0.00 | 0.00 | 76 | ||
| 20260503051134 | 18 | 0.0 | 0.0 | 0.00 | 0.00 | 0.00 | 75 | ||
| 20260503050134 | 19 | 0.0 | 1.6 | 0.00 | 0.00 | 0.00 | 73 | ||
| 20260503045134 | 20 | 0.0 | 6.4 | 0.00 | 0.00 | 0.00 | 70 | ||
| 20260503044134 | 20 | 0.0 | 3.2 | 0.00 | 0.00 | 0.00 | 68 | ||
| 20260503043154 | 21 | 0.0 | 0.0 | 0.00 | 0.00 | 0.00 | 66 | ||
| 20260503042134 | 21 | 0.0 | 0.0 | 0.00 | 0.00 | 0.00 | 65 | ||
| 20260503041134 | 21 | 0.0 | 0.0 | 0.00 | 0.00 | 0.00 | 64 | ||
| 20260503040134 | 21 | 248 | 3.2 | 9.7 | 0.00 | 0.00 | 0.00 | 63 | |
| 20260503035134 | 22 | 0.0 | 0.0 | 0.00 | 0.00 | 0.00 | 62 | ||
| 20260503034134 | 22 | 0.0 | 1.6 | 0.00 | 0.00 | 0.00 | 61 | ||
| 20260503033134 | 23 | 248 | 1.6 | 9.7 | 0.00 | 0.00 | 0.00 | 59 | |
| 20260503032154 | 23 | 270 | 6.4 | 14.5 | 0.00 | 0.00 | 0.00 | 58 | |
| 20260503031134 | 23 | 270 | 9.7 | 24.1 | 0.00 | 0.00 | 0.00 | 57 | |
| 20260503030133 | 24 | 270 | 8.0 | 16.1 | 0.00 | 0.00 | 0.00 | 55 | |
| 20260503025134 | 24 | 293 | 6.4 | 14.5 | 0.00 | 0.00 | 0.00 | 53 | |
| 20260503024134 | 25 | 293 | 6.4 | 12.9 | 0.00 | 0.00 | 0.00 | 52 | |
| 20260503023134 | 25 | 270 | 8.0 | 12.9 | 0.00 | 0.00 | 0.00 | 52 | |
| 20260503022134 | 25 | 270 | 8.0 | 14.5 | 0.00 | 0.00 | 0.00 | 51 | |
| 20260503021133 | 25 | 293 | 9.7 | 16.1 | 0.00 | 0.00 | 0.00 | 51 | |
| 20260503020134 | 25 | 293 | 11.3 | 22.5 | 0.00 | 0.00 | 0.00 | 50 | |
| 20260503015134 | 25 | 293 | 12.9 | 20.9 | 0.00 | 0.00 | 0.00 | 49 | |
| 20260503014134 | 26 | 293 | 11.3 | 20.9 | 0.00 | 0.00 | 0.00 | 49 | |
| 20260503013134 | 26 | 293 | 12.9 | 22.5 | 0.00 | 0.00 | 0.00 | 49 | |
| 20260503012134 | 26 | 293 | 12.9 | 22.5 | 0.00 | 0.00 | 0.00 | 49 | |
| 20260503011134 | 26 | 293 | 11.3 | 19.3 | 0.00 | 0.00 | 0.00 | 49 | |
| 20260503010154 | 26 | 293 | 12.9 | 24.1 | 0.00 | 0.00 | 0.00 | 49 | |
| 20260503005134 | 26 | 293 | 11.3 | 24.1 | 0.00 | 0.00 | 0.00 | 49 | |
| 20260503004134 | 25 | 293 | 14.5 | 20.9 | 0.00 | 0.00 | 0.00 | 50 | |
| 20260503003525 | 25 | 293 | 14.5 | 30.6 | 0.00 | 0.00 | 0.00 | 50 | |
| 20260503003154 | 25 | 293 | 14.5 | 30.6 | 0.00 | 0.00 | 0.00 | 50 | |
| 20260503002134 | 25 | 315 | 14.5 | 24.1 | 0.00 | 0.00 | 0.00 | 49 | |
| 20260503001134 | 26 | 293 | 14.5 | 24.1 | 0.00 | 0.00 | 0.00 | 48 | |
| 20260503000134 | 26 | 293 | 12.9 | 20.9 | 0.00 | 0.00 | 0.00 | 48 | |
| 20260502235134 | 25 | 293 | 12.9 | 22.5 | 0.00 | 0.00 | 0.00 | 49 | |
| 20260502234133 | 25 | 293 | 16.1 | 22.5 | 0.00 | 0.00 | 0.00 | 50 | |
| 20260502233134 | 25 | 315 | 12.9 | 20.9 | 0.00 | 0.00 | 0.00 | 51 | |
| 20260502232134 | 25 | 293 | 12.9 | 20.9 | 0.00 | 0.00 | 0.00 | 52 | |
| 20260502231154 | 24 | 315 | 12.9 | 22.5 | 0.00 | 0.00 | 0.00 | 52 | |
| 20260502230134 | 24 | 293 | 12.9 | 24.1 | 0.00 | 0.00 | 0.00 | 53 | |
| 20260502225134 | 25 | 293 | 12.9 | 22.5 | 0.00 | 0.00 | 0.00 | 51 |